Weather History for Douglas, WY

Change the Weather History Date:

Saturday, November 16, 2013

  Actual Average Record
Temperature  
Mean Temperature 39 °F 33 °F  
Max Temperature 47 °F 46 °F 67 °F (1999)
Min Temperature 31 °F 19 °F -1 °F (2000)
Degree Days  
Heating Degree Days 26 32  
Month to date heating degree days 435 456  
Since 1 July heating degree days 1253 1323  
Cooling Degree Days 0 0  
Month to date cooling degree days 0 0  
Year to date cooling degree days 739 486  
Moisture  
Dew Point 17 °F    
Average Humidity 43    
Maximum Humidity 52    
Minimum Humidity 33    
Precipitation  
Precipitation 0.00 in 0.02 in 0.06 in (2011)
Month to date precipitation 0.14 0.40  
Year to date precipitation 9.40 12.74  
Sea Level Pressure  
Sea Level Pressure 29.35 in    
Wind  
Wind Speed 20 mph (West)    
Max Wind Speed 36 mph    
Max Gust Speed 48 mph    
Visibility 10 miles    
Events      
T = Trace of Precipitation, MM = Missing Value Source: NWS Daily Summary

Daily Weather History Graph

Daily Weather History Graph

Search for Another Location

Airport:

Trip Planner

Search our weather history database for the weather conditions in past years. The results will help you decide how hot, cold, wet, or windy it might be!

Date:

Astronomy

Nov. 16, 2013 Rise Set
Actual Time 6:55 AM MST 4:37 PM MST
Civil Twilight 6:24 AM MST 5:07 PM MST
Nautical Twilight 5:50 AM MST 5:42 PM MST
Astronomical Twilight 5:16 AM MST 6:15 PM MST
Moon 4:15 PM MST (11/16) 5:52 AM MST (11/16)
Length of Visible Light 10h 43m
Length of Day
9h 42m
Waxing Gibbous, 99% of the Moon is Illuminated
Nov 16
Waxing Gibbous
Nov 17
Full
Nov 25
Last Quarter
Dec 2
New
Dec 9
First Quarter

Hourly Weather History & Observations

Time (MST) Temp. Windchill Dew Point Humidity Pressure Visibility Wind Dir Wind Speed Gust Speed Precip Events Conditions
12:53 AM 34.0 °F 25.0 °F 16.0 °F 48% 29.36 in 10.0 mi WSW 12.7 mph - N/A   Clear
1:53 AM 30.9 °F 25.2 °F 12.9 °F 47% 29.37 in 10.0 mi WNW 5.8 mph - N/A   Clear
2:53 AM 34.0 °F 25.5 °F 12.0 °F 40% 29.34 in 10.0 mi West 11.5 mph 19.6 mph N/A   Clear
3:53 AM 34.0 °F 25.5 °F 10.9 °F 38% 29.34 in 10.0 mi WNW 11.5 mph - N/A   Clear
4:53 AM 35.1 °F 23.5 °F 10.9 °F 37% 29.37 in 10.0 mi WNW 21.9 mph 29.9 mph N/A   Clear
5:53 AM 36.0 °F 24.4 °F 12.9 °F 39% 29.33 in 10.0 mi West 23.0 mph 31.1 mph N/A   Clear
6:53 AM 37.0 °F 25.1 °F 12.9 °F 37% 29.33 in 10.0 mi West 26.5 mph 33.4 mph N/A   Mostly Cloudy
7:53 AM 36.0 °F 29.6 °F 15.1 °F 43% 29.36 in 10.0 mi WNW 8.1 mph - N/A   Scattered Clouds
8:53 AM 39.9 °F 29.5 °F 17.1 °F 40% 29.36 in 10.0 mi West 24.2 mph 28.8 mph N/A   Overcast
9:53 AM 39.9 °F 30.8 °F 18.0 °F 41% 29.36 in 10.0 mi WSW 18.4 mph 26.5 mph N/A   Mostly Cloudy
10:53 AM 42.1 °F 32.3 °F 21.0 °F 43% 29.36 in 10.0 mi West 24.2 mph 36.8 mph N/A   Overcast
11:53 AM 45.0 °F 37.4 °F 18.0 °F 34% 29.31 in 10.0 mi West 18.4 mph 31.1 mph N/A   Overcast
12:53 PM 44.1 °F 35.4 °F 19.0 °F 37% 29.31 in 10.0 mi West 21.9 mph 38.0 mph N/A   Partly Cloudy
1:53 PM 42.1 °F 32.1 °F 19.0 °F 40% 29.32 in 10.0 mi West 25.3 mph 38.0 mph N/A   Mostly Cloudy
2:53 PM 43.0 °F 33.8 °F 19.0 °F 38% 29.30 in 10.0 mi West 23.0 mph 32.2 mph N/A   Clear
3:53 PM 42.1 °F 31.5 °F 19.9 °F 41% 29.32 in 10.0 mi West 28.8 mph 41.4 mph N/A   Clear
4:53 PM 39.9 °F 30.0 °F 19.9 °F 45% 29.34 in 10.0 mi West 21.9 mph 28.8 mph N/A   Clear
5:53 PM 39.0 °F 28.5 °F 19.9 °F 46% 29.37 in 10.0 mi West 23.0 mph 32.2 mph N/A   Clear
6:53 PM 39.0 °F 28.8 °F 19.9 °F 46% 29.37 in 10.0 mi West 21.9 mph - N/A   Clear
7:53 PM 39.0 °F 28.3 °F 19.0 °F 45% 29.37 in 10.0 mi West 24.2 mph 32.2 mph N/A   Clear
8:53 PM 39.0 °F 28.8 °F 21.0 °F 49% 29.39 in 10.0 mi West 21.9 mph 31.1 mph N/A   Clear
9:53 PM 37.0 °F 27.0 °F 21.0 °F 52% 29.41 in 10.0 mi West 18.4 mph 27.6 mph N/A   Clear
10:53 PM 37.0 °F 26.7 °F 19.9 °F 50% 29.41 in 10.0 mi West 19.6 mph 25.3 mph N/A   Clear
11:53 PM 36.0 °F 25.3 °F 19.0 °F 50% 29.41 in 10.0 mi West 19.6 mph 27.6 mph N/A   Clear